Regional Weather Roundup
Issued by NWS Little Rock, AR

Home | Current Version | Previous Version | Graphics & Text | Print | Product List | Glossary On
Versions: 1 2 3 4 5 6 7 8 9 10 11 12 13 14 15 16 17 18 19 20 21 22 23 24 25 26 27 28 29 30 31 32 33 34 35 36 37 38 39 40 41 42 43 44 45 46 47 48 49 50
000
ASUS44 KLZK 010505
RWRLZK

WEATHER ROUNDUP FOR ARKANSAS
NATIONAL WEATHER SERVICE LITTLE ROCK AR
1200 AM CDT TUE SEP 01 2015

NOTE: "FAIR" INDICATES FEW OR NO CLOUDS BELOW 12,000 FEET WITH NO
SIGNIFICANT WEATHER AND/OR OBSTRUCTIONS TO VISIBILITY.

ARZ001-003-010-029-010600-
NORTHWEST ARKANSAS

CITY           SKY/WX    TMP DP  RH WIND       PRES   REMARKS
FAYETTEVILLE   CLEAR     68  68 100 CALM      30.07S FOG
FORT SMITH     CLEAR     75  66  73 E5        30.03R
BENTONVILLE    CLEAR     72  64  78 SE5       30.07S
ROGERS         CLEAR     74  67  78 SE6       30.08R
SILOAM SPGS    CLEAR     73  63  68 SE6       30.05R
HIGHFILL       CLEAR     74  68  81 CALM      30.07R
$$

ARZ004-005-016-010600-
NORTH CENTRAL ARKANSAS

CITY           SKY/WX    TMP DP  RH WIND       PRES   REMARKS
BATESVILLE     CLEAR     72  70  94 CALM      30.06R
FLIPPIN        FAIR      70  63  78 CALM      30.05S
MTN HOME       CLEAR     71  68  90 CALM      30.07S
$$

ARZ040-041-010600-
WEST CENTRAL ARKANSAS

CITY           SKY/WX    TMP DP  RH WIND       PRES   REMARKS
MENA           CLEAR     72  68  88 CALM      30.06S
MOUNT IDA      CLEAR     71  69  93 CALM      30.04R FOG
$$

ARZ009-017-025-026-028-010600-
NORTHEAST ARKANSAS

CITY           SKY/WX    TMP DP  RH WIND       PRES   REMARKS
JONESBORO      CLEAR     70  69  97 E3        30.06R
NEWPORT        CLEAR     74  72  93 E6        30.06R
WALNUT RIDGE   CLEAR     73  66  78 SE5       30.06R
BLYTHEVILLE    CLEAR     73  70  90 SE5       30.07S
$$

ARZ022-023-033-042-044-010600-
CENTRAL ARKANSAS

CITY           SKY/WX    TMP DP  RH WIND       PRES   REMARKS
LITTLE ROCK    PTCLDY    77  70  79 CALM      30.04R
N LITTLE ROCK  CLEAR     79  71  75 SE5       30.04R
JACKSONVILLE   PTCLDY    73  69  86 NE1       30.03S
SEARCY         PTCLDY    75  71  87 CALM      30.06R
HOT SPRINGS    CLEAR     73  68  84 CALM      30.04S
RUSSELLVILLE   CLEAR     71  68  90 CALM      30.03S
$$

ARZ036-010600-
EAST ARKANSAS

CITY           SKY/WX    TMP DP  RH WIND       PRES   REMARKS
WEST MEMPHIS   CLEAR     74  70  87 SE3       30.05S
$$

ARZ050-053-066-070-073-010600-
SOUTHWEST ARKANSAS

CITY           SKY/WX    TMP DP  RH WIND       PRES   REMARKS
ARKADELPHIA    FAIR      72  71  96 CALM      30.03S
CAMDEN         PTCLDY    72  66  83 CALM      30.02S
TEXARKANA      CLEAR     74  66  76 CALM      30.03R
EL DORADO      CLEAR     71  63  75 CALM      30.03S
DE QUEEN       CLEAR     70  69  97 CALM      30.01R FOG
$$

ARZ056-057-069-010600-
SOUTHEAST ARKANSAS

CITY           SKY/WX    TMP DP  RH WIND       PRES   REMARKS
PINE BLUFF     PTCLDY    74  70  87 CALM      30.03S
STUTTGART      CLEAR     79  68  69 E7        30.04S
MONTICELLO     CLEAR     74  70  87 CALM      30.03R

$$





USA.gov is the U.S. government's official web portal to all federal, state and local government web resources and services.